Time,TemperatureF,DewpointF,PressureIn,WindDirection,WindDirectionDegrees,WindSpeedMPH,WindSpeedGustMPH,Humidity,HourlyPrecipIn,Conditions,Clouds,dailyrainin,SoftwareType,DateUTC
2015-08-30 00:08:00,67.6,63.9,29.96,East,90,0.0,-999.0,88,-99.99,,,0.00,Acu-Link.com,2015-08-30 04:08:00,
2015-08-30 00:23:00,67.5,64.1,29.96,WNW,292,0.0,-999.0,89,-99.99,,,0.00,Acu-Link.com,2015-08-30 04:23:00,
2015-08-30 00:38:00,67.3,64.3,29.96,ESE,112,0.0,-999.0,90,-99.99,,,0.00,Acu-Link.com,2015-08-30 04:38:00,
2015-08-30 00:53:00,66.9,65.1,29.96,East,90,0.0,-999.0,94,-99.99,,,0.00,Acu-Link.com,2015-08-30 04:53:00,
2015-08-30 01:08:00,66.7,65.5,29.96,SSW,202,0.0,-999.0,96,-99.99,,,0.00,Acu-Link.com,2015-08-30 05:08:00,
2015-08-30 01:24:00,66.6,65.7,29.95,East,90,0.0,-999.0,97,-99.99,,,0.00,Acu-Link.com,2015-08-30 05:24:00,
2015-08-30 01:39:00,66.4,66.1,29.94,East,90,0.0,-999.0,99,-99.99,,,0.00,Acu-Link.com,2015-08-30 05:39:00,
2015-08-30 01:54:00,66.2,65.9,29.94,ESE,112,0.0,-999.0,99,-99.99,,,0.00,Acu-Link.com,2015-08-30 05:54:00,
2015-08-30 02:09:00,66.2,65.9,29.93,ESE,112,0.0,-999.0,99,-99.99,,,0.00,Acu-Link.com,2015-08-30 06:09:00,
2015-08-30 02:27:00,66.2,65.9,29.92,ESE,112,0.0,-999.0,99,-99.99,,,0.00,Acu-Link.com,2015-08-30 06:27:00,
2015-08-30 02:42:00,66.2,65.9,29.94,West,270,0.0,-999.0,99,-99.99,,,0.00,Acu-Link.com,2015-08-30 06:42:00,
2015-08-30 02:58:00,66.2,65.9,29.94,ESE,112,0.0,-999.0,99,-99.99,,,0.00,Acu-Link.com,2015-08-30 06:58:00,
2015-08-30 03:13:00,66.2,65.9,29.95,WSW,247,0.0,-999.0,99,-99.99,,,0.00,Acu-Link.com,2015-08-30 07:13:00,
2015-08-30 03:28:00,66.2,65.9,29.95,SSW,202,0.0,-999.0,99,-99.99,,,0.00,Acu-Link.com,2015-08-30 07:28:00,
2015-08-30 03:43:00,66.4,66.1,29.95,SSW,202,0.0,-999.0,99,-99.99,,,0.01,Acu-Link.com,2015-08-30 07:43:00,
2015-08-30 03:59:00,66.2,65.9,29.94,ESE,112,0.0,-999.0,99,-99.99,,,0.02,Acu-Link.com,2015-08-30 07:59:00,
2015-08-30 04:14:00,66.2,65.9,29.94,ESE,112,0.0,-999.0,99,-99.99,,,0.02,Acu-Link.com,2015-08-30 08:14:00,
2015-08-30 04:29:00,66.0,65.7,29.93,East,90,0.0,-999.0,99,-99.99,,,0.02,Acu-Link.com,2015-08-30 08:29:00,
2015-08-30 04:44:00,65.8,65.5,29.94,East,90,0.0,-999.0,99,-99.99,,,0.02,Acu-Link.com,2015-08-30 08:44:00,
2015-08-30 05:00:00,65.7,65.4,29.94,East,90,0.0,-999.0,99,-99.99,,,0.02,Acu-Link.com,2015-08-30 09:00:00,
2015-08-30 05:15:00,65.5,65.2,29.94,East,90,0.0,-999.0,99,-99.99,,,0.02,Acu-Link.com,2015-08-30 09:15:00,
2015-08-30 05:30:00,65.3,65.0,29.95,ESE,112,0.0,-999.0,99,-99.99,,,0.02,Acu-Link.com,2015-08-30 09:30:00,
2015-08-30 05:46:00,65.1,64.8,29.94,ESE,112,0.0,-999.0,99,-99.99,,,0.02,Acu-Link.com,2015-08-30 09:46:00,
2015-08-30 06:01:00,65.1,64.8,29.95,ESE,112,0.0,-999.0,99,-99.99,,,0.02,Acu-Link.com,2015-08-30 10:01:00,
2015-08-30 06:16:00,64.9,64.6,29.96,ESE,112,0.0,-999.0,99,-99.99,,,0.02,Acu-Link.com,2015-08-30 10:16:00,
2015-08-30 06:31:00,64.9,64.6,29.97,South,180,0.0,-999.0,99,-99.99,,,0.02,Acu-Link.com,2015-08-30 10:31:00,
2015-08-30 06:47:00,64.9,64.6,29.97,South,180,0.0,-999.0,99,-99.99,,,0.02,Acu-Link.com,2015-08-30 10:47:00,
2015-08-30 07:02:00,64.9,64.6,29.97,ESE,112,0.0,-999.0,99,-99.99,,,0.02,Acu-Link.com,2015-08-30 11:02:00,
2015-08-30 07:17:00,64.9,64.6,29.97,ESE,112,0.0,-999.0,99,-99.99,,,0.02,Acu-Link.com,2015-08-30 11:17:00,
2015-08-30 07:32:00,65.1,64.8,29.98,SE,135,0.0,-999.0,99,-99.99,,,0.02,Acu-Link.com,2015-08-30 11:32:00,
2015-08-30 07:48:00,65.3,65.0,29.98,SE,135,0.0,-999.0,99,-99.99,,,0.02,Acu-Link.com,2015-08-30 11:48:00,
2015-08-30 08:03:00,65.8,65.5,29.98,SE,135,0.0,-999.0,99,-99.99,,,0.02,Acu-Link.com,2015-08-30 12:03:00,
2015-08-30 08:18:00,66.6,66.3,29.98,East,90,0.0,-999.0,99,-99.99,,,0.02,Acu-Link.com,2015-08-30 12:18:00,
2015-08-30 08:34:00,67.5,67.2,29.98,ESE,112,0.0,-999.0,99,-99.99,,,0.02,Acu-Link.com,2015-08-30 12:34:00,
2015-08-30 08:49:00,69.3,69.0,29.98,ENE,67,0.0,-999.0,99,-99.99,,,0.02,Acu-Link.com,2015-08-30 12:49:00,
2015-08-30 09:04:00,70.2,69.9,29.98,ESE,112,0.0,-999.0,99,-99.99,,,0.02,Acu-Link.com,2015-08-30 13:04:00,
2015-08-30 09:20:00,70.3,70.0,29.98,SW,225,1.1,-999.0,99,-99.99,,,0.02,Acu-Link.com,2015-08-30 13:20:00,
2015-08-30 09:35:00,71.6,71.3,29.98,West,270,0.0,-999.0,99,-99.99,,,0.02,Acu-Link.com,2015-08-30 13:35:00,
2015-08-30 09:50:00,73.8,72.0,29.98,South,180,0.0,-999.0,94,-99.99,,,0.02,Acu-Link.com,2015-08-30 13:50:00,
2015-08-30 10:06:00,74.3,71.5,29.98,West,270,1.1,-999.0,91,-99.99,,,0.02,Acu-Link.com,2015-08-30 14:06:00,
2015-08-30 10:21:00,75.2,72.1,29.98,NNW,337,3.7,-999.0,90,-99.99,,,0.02,Acu-Link.com,2015-08-30 14:21:00,
2015-08-30 10:37:00,75.7,72.2,29.98,SW,225,3.2,-999.0,89,-99.99,,,0.02,Acu-Link.com,2015-08-30 14:37:00,
2015-08-30 10:52:00,75.7,72.2,29.99,West,270,1.7,-999.0,89,-99.99,,,0.02,Acu-Link.com,2015-08-30 14:52:00,
2015-08-30 11:07:00,75.6,72.5,29.99,WNW,292,4.2,-999.0,90,-99.99,,,0.02,Acu-Link.com,2015-08-30 15:07:00,
2015-08-30 11:22:00,76.8,73.3,29.99,ENE,67,0.0,-999.0,89,-99.99,,,0.02,Acu-Link.com,2015-08-30 15:22:00,
2015-08-30 11:37:00,76.6,73.4,29.98,WSW,247,2.7,-999.0,90,-99.99,,,0.02,Acu-Link.com,2015-08-30 15:37:00,
2015-08-30 11:52:00,78.4,74.2,29.98,SW,225,2.2,-999.0,87,-99.99,,,0.02,Acu-Link.com,2015-08-30 15:52:00,
2015-08-30 12:07:00,79.3,73.3,29.98,SE,135,2.2,-999.0,82,-99.99,,,0.02,Acu-Link.com,2015-08-30 16:07:00,
2015-08-30 12:22:00,80.1,73.7,29.98,West,270,3.7,-999.0,81,-99.99,,,0.02,Acu-Link.com,2015-08-30 16:22:00,
2015-08-30 12:38:00,75.6,71.8,29.97,WSW,247,2.7,-999.0,88,-99.99,,,0.02,Acu-Link.com,2015-08-30 16:38:00,
2015-08-30 12:53:00,77.4,72.2,29.97,SW,225,2.2,-999.0,84,-99.99,,,0.02,Acu-Link.com,2015-08-30 16:53:00,
2015-08-30 13:08:00,78.6,73.7,29.97,West,270,5.8,-999.0,85,-99.99,,,0.02,Acu-Link.com,2015-08-30 17:08:00,
2015-08-30 13:24:00,78.3,73.4,29.97,West,270,4.2,-999.0,85,-99.99,,,0.02,Acu-Link.com,2015-08-30 17:24:00,
2015-08-30 13:39:00,77.9,73.7,29.97,SW,225,2.7,-999.0,87,-99.99,,,0.02,Acu-Link.com,2015-08-30 17:39:00,
2015-08-30 13:54:00,78.6,74.0,29.97,SSW,202,1.7,-999.0,86,-99.99,,,0.02,Acu-Link.com,2015-08-30 17:54:00,
2015-08-30 14:09:00,78.1,73.6,29.96,West,270,2.2,-999.0,86,-99.99,,,0.02,Acu-Link.com,2015-08-30 18:09:00,
2015-08-30 14:40:00,77.2,73.0,29.96,NNW,337,3.7,-999.0,87,-99.99,,,0.02,Acu-Link.com,2015-08-30 18:40:00,
2015-08-30 14:55:00,78.4,73.2,29.95,East,90,5.3,-999.0,84,-99.99,,,0.02,Acu-Link.com,2015-08-30 18:55:00,
2015-08-30 15:10:00,76.8,73.3,29.95,WSW,247,2.2,-999.0,89,-99.99,,,0.02,Acu-Link.com,2015-08-30 19:10:00,
2015-08-30 15:25:00,78.1,73.2,29.94,West,270,3.2,-999.0,85,-99.99,,,0.02,Acu-Link.com,2015-08-30 19:25:00,
2015-08-30 15:41:00,78.1,72.9,29.94,SW,225,2.2,-999.0,84,-99.99,,,0.02,Acu-Link.com,2015-08-30 19:41:00,
2015-08-30 15:56:00,79.3,72.2,29.93,West,270,4.2,-999.0,79,-99.99,,,0.02,Acu-Link.com,2015-08-30 19:56:00,
2015-08-30 16:11:00,79.7,73.0,29.92,SW,225,2.2,-999.0,80,-99.99,,,0.02,Acu-Link.com,2015-08-30 20:11:00,
2015-08-30 16:26:00,79.9,73.2,29.92,NNW,337,3.2,-999.0,80,-99.99,,,0.02,Acu-Link.com,2015-08-30 20:26:00,
2015-08-30 16:42:00,84.0,74.0,29.91,SW,225,3.2,-999.0,72,-99.99,,,0.02,Acu-Link.com,2015-08-30 20:42:00,
2015-08-30 17:03:00,88.7,71.0,29.91,West,270,3.7,-999.0,56,-99.99,,,0.02,Acu-Link.com,2015-08-30 21:03:00,
2015-08-30 17:18:00,85.3,69.3,29.91,NNE,22,2.2,-999.0,59,-99.99,,,0.02,Acu-Link.com,2015-08-30 21:18:00,
2015-08-30 17:34:00,81.9,68.5,29.91,West,270,2.7,-999.0,64,-99.99,,,0.02,Acu-Link.com,2015-08-30 21:34:00,
2015-08-30 17:49:00,79.3,68.6,29.91,NW,315,1.7,-999.0,70,-99.99,,,0.02,Acu-Link.com,2015-08-30 21:49:00,
2015-08-30 18:04:00,78.8,67.7,29.91,West,270,2.2,-999.0,69,-99.99,,,0.02,Acu-Link.com,2015-08-30 22:04:00,
2015-08-30 18:19:00,78.8,67.7,29.90,WSW,247,0.0,-999.0,69,-99.99,,,0.02,Acu-Link.com,2015-08-30 22:19:00,
2015-08-30 18:34:00,77.9,67.3,29.90,WSW,247,0.0,-999.0,70,-99.99,,,0.02,Acu-Link.com,2015-08-30 22:34:00,
2015-08-30 18:49:00,77.2,67.1,29.91,SSW,202,0.0,-999.0,71,-99.99,,,0.02,Acu-Link.com,2015-08-30 22:49:00,
2015-08-30 19:04:00,77.2,67.5,29.90,WSW,247,0.0,-999.0,72,-99.99,,,0.02,Acu-Link.com,2015-08-30 23:04:00,
2015-08-30 19:20:00,76.8,67.1,29.90,WSW,247,0.0,-999.0,72,-99.99,,,0.02,Acu-Link.com,2015-08-30 23:20:00,
2015-08-30 19:35:00,75.0,66.5,29.90,WSW,247,0.0,-999.0,75,-99.99,,,0.02,Acu-Link.com,2015-08-30 23:35:00,
2015-08-30 19:50:00,72.7,66.2,29.91,SW,225,0.0,-999.0,80,-99.99,,,0.02,Acu-Link.com,2015-08-30 23:50:00,
2015-08-30 20:05:00,71.2,66.5,29.91,ENE,67,0.0,-999.0,85,-99.99,,,0.02,Acu-Link.com,2015-08-31 00:05:00,